Dewpoint
8 7 7 7 7 6 6 6 6 5 5 5 5 6 6 6 6 6 5 4 3 3 3 2 2 3 3 3 3 3 3 3 4 4 4 4 4 4 3 4 4 4
6 6 6 5 6 6 6 6 6 6 5 5 5 5 6 7 7 6 6 5 4 3 3 2 1 2 3 3 3 3 2 3 3 3 4 4 4 3 3 3 3 3
5 6 5 5 6 6 6 6 6 6 6 5 5 5 7 8 8 7 6 6 5 4 3 3 2 2 3 3 3 3 2 2 3 3 3 4 4 4 3 3 3 3
5 5 5 5 5 6 6 6 6 6 5 5 5 7 8 9 9 8 7 6 5 4 4 3 2 2 3 3 3 3 3 3 2 3 3 4 4 4 4 3 2 3
5 5 5 4 4 5 5 5 5 6 5 5 6 8 9 9 9 9 8 7 6 5 4 3 3 3 2 3 3 3 3 3 3 3 3 3 4 4 4 3 2 2
6 6 6 5 5 4 4 4 5 6 6 7 8 9 9 10 10 9 9 8 7 5 5 4 3 3 3 3 3 3 3 3 3 3 3 3 4 4 4 3 2 1
6 6 6 5 5 5 5 5 5 6 7 7 8 9 9 10 10 10 10 9 8 7 6 5 3 3 3 3 2 2 3 3 3 3 3 3 4 4 4 4 3 1
6 6 6 6 6 6 6 6 6 7 7 8 8 8 9 10 10 10 10 10 9 8 7 6 4 3 3 3 3 3 3 3 3 3 3 3 4 4 4 4 4 1
7 6 6 7 7 7 7 7 7 7 8 8 8 8 8 9 10 10 10 10 10 9 8 6 4 3 3 3 3 3 3 3 3 3 3 4 4 4 5 4 4 3
7 6 7 7 7 7 7 7 7 7 8 8 8 8 8 8 9 10 10 10 9 8 6 4 4 4 4 3 3 3 3 3 3 3 4 4 4 4 5 5 4 3
7 7 7 7 7 6 6 6 6 6 7 7 8 8 8 8 8 9 9 9 8 6 3 2 2 3 4 4 3 3 3 3 3 4 4 4 4 4 5 5 5 4
6 6 6 6 6 6 5 5 5 5 5 5 6 6 6 7 7 7 8 8 7 4 1 0 1 2 3 4 4 4 3 4 4 4 4 4 4 4 4 5 5 4
4 5 6 6 6 6 5 5 5 5 4 3 3 3 3 4 5 5 5 5 4 2 1 0 1 1 2 3 3 3 4 4 4 4 4 4 4 4 5 5 5 4
4 4 5 5 5 4 4 5 5 5 5 4 4 4 3 3 3 3 3 3 2 2 2 2 2 2 3 3 3 3 4 4 4 4 4 4 4 4 4 5 5 4
4 5 5 5 5 4 3 4 5 5 6 6 5 5 4 4 4 4 3 3 3 3 3 3 3 4 4 4 4 4 3 4 4 4 4 4 4 4 4 5 5 4
4 4 4 5 5 4 3 3 3 4 5 6 6 6 5 5 4 4 4 4 4 4 4 4 4 4 4 4 4 4 4 4 4 4 4 4 4 4 4 5 5 4
4 4 4 4 4 4 3 2 3 4 4 5 5 6 5 5 5 5 5 4 4 4 4 4 4 4 4 5 5 5 4 4 4 4 4 4 4 4 4 4 5 4
3 3 3 3 4 3 3 3 3 3 4 4 4 4 4 5 5 5 5 5 5 5 5 5 4 4 4 5 5 5 5 5 5 4 4 4 5 4 4 4 4 4
3 3 3 3 3 3 3 3 3 3 4 3 3 3 4 4 4 4 4 4 5 5 5 5 5 5 5 5 5 5 5 5 5 5 5 4 5 5 5 4 4 4
2 3 3 2 3 2 3 3 3 3 4 4 3 4 4 3 3 3 3 3 4 4 4 4 4 4 4 5 5 5 5 5 5 5 5 4 4 5 5 5 5 4
2 2 2 2 3 2 2 2 2 3 3 3 3 4 3 4 4 4 3 3 3 3 3 3 3 2 3 4 4 5 5 5 5 5 5 5 5 4 5 5 5 5
2 2 2 2 3 2 2 2 2 2 2 2 3 3 3 4 4 4 4 4 4 4 3 4 3 2 2 2 3 4 4 5 5 5 5 5 5 5 5 5 5 5
3 3 3 3 3 3 2 2 2 1 1 2 3 3 3 3 3 4 4 4 4 4 4 4 4 3 3 2 2 3 3 4 4 5 5 5 5 5 5 5 5 5
3 3 4 4 4 4 3 3 3 3 2 2 2 2 3 3 3 3 3 3 3 4 4 4 3 3 3 3 3 3 3 3 3 3 4 4 5 5 5 5 5 5
4 4 4 4 4 4 5 4 4 4 4 3 3 3 3 3 3 3 3 3 3 3 3 3 3 3 3 3 3 3 3 3 3 3 3 3 3 4 4 5 5 5
5 5 4 5 5 5 5 5 6 5 5 5 4 4 4 3 3 3 4 4 4 3 3 3 3 3 3 3 3 4 3 3 3 3 3 3 3 3 3 4 5 5
Wind_Speed
9 10 10 10 9 8 8 7 7 6 6 6 6 6 6 6 5 4 4 5 5 6 7 7 6 8 8 8 9 10 9 9 9 9 9 9 10 10 10 9 7 6
9 9 9 9 9 8 8 8 8 8 7 7 7 7 6 6 6 5 5 5 4 5 6 6 5 5 7 7 7 8 9 9 9 9 9 9 10 10 9 9 9 8
8 9 9 9 8 8 8 8 9 9 8 8 8 8 7 7 8 7 6 6 5 4 4 5 5 5 5 5 6 6 7 8 9 9 9 9 9 9 9 9 9 9
8 9 9 9 9 8 9 10 10 10 10 9 8 8 8 8 9 8 8 8 7 5 4 4 5 5 5 5 5 5 5 6 7 8 9 8 9 9 9 9 9 8
7 8 8 8 9 9 10 11 10 10 10 9 9 9 10 10 11 9 8 9 8 7 5 4 4 5 5 6 5 5 5 6 6 8 8 9 9 9 9 10 9 8
7 7 7 7 7 7 8 8 8 9 9 9 9 9 11 13 14 11 9 9 9 8 8 6 5 5 6 6 7 6 7 7 6 7 8 8 9 10 10 11 10 9
7 7 6 6 5 4 5 6 6 7 7 8 10 11 12 14 15 13 11 10 10 10 10 8 7 6 6 7 7 7 7 7 7 8 8 7 8 10 11 12 12 11
7 7 7 6 5 5 6 7 7 7 7 8 10 11 13 14 15 14 12 11 11 11 11 11 9 8 8 8 8 8 7 7 7 8 8 7 7 9 10 12 13 13
9 8 9 9 8 9 9 9 9 9 10 10 10 11 12 13 14 14 13 12 13 12 12 12 11 10 10 10 9 8 8 7 7 7 7 7 8 8 10 11 13 14
11 10 10 11 11 11 11 11 11 12 12 13 12 12 13 13 13 13 13 13 14 13 13 12 12 12 12 12 11 10 10 9 8 8 8 8 8 9 9 11 13 14
12 11 12 12 13 12 10 9 10 11 13 14 14 14 14 14 13 13 13 13 14 14 13 13 12 13 14 14 13 12 11 10 10 9 9 9 9 9 10 11 13 14
10 11 11 12 13 11 9 8 8 8 9 10 12 13 13 14 14 13 13 13 13 13 13 12 12 13 15 15 15 14 13 12 11 11 11 11 10 10 10 12 13 15
9 9 10 11 12 12 11 9 8 8 6 5 6 7 8 10 11 11 11 11 11 11 10 10 11 13 14 15 15 15 15 14 13 13 13 12 12 11 11 12 14 14
8 9 10 11 11 11 11 11 11 10 9 7 6 5 5 5 6 7 8 8 8 9 9 9 10 11 12 13 14 15 15 15 15 15 15 15 14 13 12 13 14 14
9 9 11 12 11 11 11 12 12 12 11 11 11 10 8 7 7 7 8 8 8 9 9 10 11 11 11 11 12 13 14 14 15 15 16 16 15 14 13 13 14 13
10 10 11 12 11 10 9 10 11 11 12 13 13 13 13 12 11 11 10 10 10 10 10 11 12 11 11 11 12 12 13 13 13 14 15 16 15 15 14 14 13 13
10 11 12 12 11 9 8 8 9 10 11 12 13 14 14 15 15 15 14 14 13 13 13 14 14 13 12 12 13 13 14 14 14 14 14 15 15 14 14 13 13 13
10 11 12 12 11 10 10 9 10 11 11 12 13 13 14 15 17 17 17 17 17 17 17 17 17 15 14 14 15 15 16 16 16 15 16 16 16 15 14 14 14 14
12 13 13 13 12 11 11 12 13 14 14 14 13 13 14 15 17 18 18 19 20 20 20 20 20 19 18 17 17 17 18 18 18 18 18 18 18 17 16 15 15 15
14 15 15 15 14 13 13 14 16 16 16 17 17 16 17 17 17 18 19 19 20 20 21 21 21 21 20 20 21 20 20 21 21 21 21 21 20 19 18 18 17 17
15 16 16 17 16 16 16 17 17 18 18 19 19 20 20 20 20 20 20 20 21 21 21 21 20 19 20 20 21 22 23 23 24 25 25 24 23 22 21 20 19 19
16 17 18 18 18 18 19 19 19 20 20 20 21 22 23 23 23 24 23 23 23 23 23 23 22 20 19 19 19 21 22 25 26 28 28 27 26 24 23 22 22 22
20 20 20 20 20 21 21 21 21 21 21 21 22 23 23 24 24 24 25 25 25 25 26 26 24 23 22 21 20 19 21 23 26 27 29 30 29 27 26 25 24 24
25 25 25 24 23 23 23 23 23 23 23 23 24 24 24 24 24 24 24 24 24 25 26 26 26 24 24 24 23 21 21 22 24 26 28 29 29 29 29 28 27 26
28 28 28 28 27 27 26 26 26 26 26 26 27 27 26 25 25 25 24 24 24 24 24 25 26 25 25 26 26 26 25 24 24 26 28 28 28 29 29 30 29 28
27 28 28 28 28 28 27 27 27 27 27 28 29 30 30 29 28 26 25 25 26 26 26 26 27 27 26 26 26 27 28 28 27 27 27 28 28 28 29 30 30 30
Wind_Direction
258 260 261 261 262 264 267 267 271 277 282 293 307 314 320 319 310 300 312 339 -0 5 8 18 29 32 30 30 31 35 41 44 42 38 35 31 28 29 30 30 37 43
265 263 263 265 266 267 269 269 269 269 271 274 285 295 303 311 310 298 295 312 339 354 2 10 18 25 29 28 27 30 37 41 41 37 34 29 22 19 20 18 19 21
275 271 270 272 272 269 265 264 265 266 266 268 278 289 296 306 310 305 295 295 310 325 344 359 5 15 24 26 23 26 32 35 37 36 32 28 22 16 11 8 7 7
286 280 278 277 275 271 265 262 265 267 267 268 273 282 290 296 299 301 296 290 295 299 308 336 349 359 8 9 9 11 14 19 23 26 28 25 19 13 7 1 359 357
299 288 281 278 275 272 269 268 271 271 267 264 267 276 284 285 283 285 284 281 284 287 288 301 319 334 344 346 347 349 349 354 -0 6 15 21 17 10 4 358 354 349
306 296 284 275 272 271 275 279 278 273 267 264 269 275 280 282 283 282 274 269 271 275 278 284 288 300 315 324 330 333 334 336 338 343 355 8 11 9 4 357 352 346
299 292 278 264 263 277 293 295 286 277 275 272 272 274 277 281 286 287 279 267 264 265 269 273 273 276 287 298 310 320 325 329 326 325 334 349 358 2 2 358 354 349
283 276 264 254 259 278 292 294 290 286 282 277 275 274 275 277 281 286 283 269 264 264 264 265 264 265 270 278 291 304 314 322 320 315 318 328 338 348 353 354 354 352
269 264 257 254 260 270 277 281 282 282 280 281 282 280 276 273 275 281 281 269 264 265 265 263 260 258 260 266 275 286 296 307 312 311 314 319 325 334 341 346 349 350
265 264 260 259 263 269 275 278 277 275 276 279 282 282 280 277 272 272 272 267 264 267 268 263 257 254 256 261 267 275 283 291 298 303 310 316 320 326 331 338 343 346
265 268 269 268 268 269 275 283 281 276 274 275 277 278 279 279 273 267 265 263 264 269 270 263 256 254 254 257 263 270 275 280 284 289 297 305 311 318 324 331 336 340
263 267 272 275 272 269 274 284 287 286 284 281 277 274 274 274 272 268 265 265 268 271 269 262 258 256 255 256 259 264 270 275 279 280 284 291 300 309 316 324 330 332
268 269 273 277 278 275 273 274 281 288 294 295 287 279 275 271 269 268 267 266 267 267 265 261 258 258 259 260 261 265 270 275 279 279 278 282 290 300 308 315 321 325
273 272 270 274 279 278 270 265 271 279 284 288 290 292 288 274 263 257 254 253 252 253 254 253 253 256 259 263 266 269 273 277 280 281 280 281 286 292 299 306 312 316
270 268 269 272 276 279 274 265 265 271 276 279 281 285 287 281 269 256 249 247 246 249 252 252 255 258 259 262 266 269 271 274 278 280 280 281 285 288 291 297 302 306
267 265 268 271 276 285 285 271 262 262 268 273 277 281 281 279 276 270 266 263 260 259 258 257 262 266 266 265 266 268 270 272 274 277 279 281 284 285 286 290 294 295
267 266 268 270 273 281 285 276 264 259 262 268 272 274 275 276 277 274 273 273 271 269 267 266 269 272 272 269 268 271 273 274 276 276 277 278 280 281 283 285 286 286
270 268 269 269 268 269 273 275 271 266 266 268 269 269 269 271 273 274 276 276 274 274 273 273 275 277 275 271 268 269 271 273 276 276 274 274 274 277 280 281 281 281
276 272 270 270 268 264 266 270 271 271 272 272 272 271 270 269 270 273 276 277 277 278 279 280 281 282 280 275 272 270 269 270 273 274 274 273 272 273 276 277 277 277
280 276 275 275 273 268 264 265 268 271 273 275 275 274 271 271 273 273 275 277 279 281 284 286 287 286 284 280 277 274 271 270 272 274 274 273 272 272 273 272 273 272
283 280 278 278 277 273 268 266 267 269 271 272 275 275 275 275 275 274 274 275 276 278 280 282 284 286 285 282 279 276 273 270 270 271 272 272 272 272 272 271 271 271
289 286 283 281 279 276 273 272 271 272 273 274 274 275 277 277 275 275 275 276 277 277 277 278 280 281 281 280 277 275 273 271 269 269 270 271 271 270 271 271 271 270
297 294 291 287 283 279 277 276 275 276 277 276 275 275 277 277 277 278 277 278 278 277 277 279 281 281 280 279 277 275 271 268 267 267 269 270 271 271 270 270 270 269
296 296 295 292 289 285 282 280 278 278 278 277 276 276 276 277 278 278 278 277 276 277 278 278 280 282 282 279 277 276 271 267 266 266 266 267 270 271 270 268 268 268
289 288 288 289 289 288 288 286 283 281 280 279 277 276 276 276 277 278 279 280 278 278 279 279 281 285 286 283 281 278 274 272 270 268 267 267 269 270 270 268 267 266
295 289 285 284 285 287 288 287 285 282 280 279 278 277 276 276 275 274 275 278 278 278 280 282 283 285 288 290 288 284 280 277 274 271 271 273 273 273 272 271 269 267
Height
1527 1527 1527 1527 1527 1527 1527 1527 1527 1526 1526 1526 1525 1525 1524 1524 1524 1523 1523 1523 1523 1522 1521 1521 1520 1520 1519 1518 1518 1517 1516 1516 1515 1515 1514 1513 1513 1512 1512 1511 1510 1510
1527 1527 1527 1527 1527 1527 1527 1526 1526 1526 1525 1525 1525 1524 1524 1523 1523 1523 1523 1522 1522 1522 1521 1521 1520 1520 1519 1519 1518 1518 1517 1516 1515 1515 1514 1514 1513 1512 1512 1511 1511 1510
1526 1526 1526 1526 1526 1526 1526 1526 1525 1525 1525 1525 1524 1523 1523 1523 1523 1522 1522 1522 1522 1521 1521 1521 1520 1520 1519 1519 1518 1518 1517 1517 1516 1515 1514 1514 1513 1513 1512 1511 1511 1510
1526 1526 1525 1525 1525 1525 1525 1525 1525 1524 1524 1524 1523 1523 1522 1522 1522 1522 1521 1521 1521 1521 1520 1520 1520 1519 1519 1518 1518 1518 1517 1517 1516 1515 1515 1514 1513 1512 1512 1511 1510 1510
1525 1525 1525 1525 1524 1524 1524 1524 1524 1523 1523 1523 1522 1522 1522 1521 1521 1521 1521 1520 1520 1520 1520 1519 1519 1519 1518 1518 1517 1517 1517 1516 1516 1515 1515 1514 1513 1512 1511 1511 1510 1509
1525 1524 1524 1524 1523 1523 1523 1522 1522 1522 1522 1522 1521 1521 1521 1520 1520 1520 1519 1519 1519 1519 1519 1518 1518 1518 1518 1517 1517 1516 1516 1515 1515 1515 1514 1514 1513 1512 1511 1510 1509 1508
1524 1524 1523 1523 1522 1522 1522 1521 1521 1521 1520 1520 1520 1519 1519 1519 1519 1519 1518 1518 1517 1517 1517 1517 1517 1517 1516 1516 1516 1515 1515 1515 1514 1514 1514 1513 1512 1511 1511 1509 1509 1508
1523 1523 1522 1522 1522 1521 1521 1520 1520 1520 1519 1519 1518 1518 1518 1517 1517 1517 1517 1516 1516 1516 1516 1516 1516 1516 1515 1515 1514 1514 1514 1514 1513 1513 1512 1512 1511 1511 1510 1509 1508 1507
1522 1522 1522 1521 1521 1520 1520 1520 1519 1519 1518 1517 1517 1516 1516 1515 1515 1515 1515 1515 1514 1514 1514 1514 1514 1514 1514 1513 1513 1513 1513 1512 1512 1512 1511 1511 1510 1509 1509 1508 1507 1506
1522 1521 1521 1520 1520 1519 1519 1519 1518 1518 1517 1516 1516 1515 1515 1514 1514 1514 1513 1513 1512 1512 1512 1512 1512 1512 1512 1512 1512 1511 1511 1511 1511 1510 1510 1509 1509 1508 1507 1506 1506 1505
1521 1520 1520 1519 1519 1519 1518 1518 1517 1516 1516 1515 1515 1514 1513 1513 1512 1512 1511 1511 1511 1510 1510 1510 1510 1511 1510 1510 1510 1510 1510 1510 1509 1509 1508 1508 1507 1506 1506 1505 1504 1503
1520 1519 1519 1518 1518 1518 1518 1517 1517 1516 1515 1514 1514 1513 1512 1511 1510 1510 1510 1509 1509 1509 1509 1509 1509 1509 1509 1509 1509 1509 1508 1508 1508 1507 1507 1506 1506 1505 1504 1504 1503 1502
1518 1518 1517 1517 1517 1517 1517 1516 1516 1515 1515 1514 1513 1512 1511 1510 1509 1509 1508 1508 1507 1507 1507 1507 1507 1507 1507 1507 1507 1507 1507 1506 1506 1506 1505 1505 1504 1503 1503 1502 1502 1501
1516 1516 1516 1515 1515 1515 1515 1515 1515 1515 1514 1513 1513 1512 1511 1510 1509 1508 1508 1507 1506 1506 1506 1506 1506 1505 1505 1505 1505 1505 1505 1505 1504 1504 1504 1503 1502 1502 1501 1501 1500 1500
1514 1514 1513 1513 1513 1513 1513 1513 1513 1513 1513 1512 1512 1511 1511 1510 1509 1508 1507 1506 1506 1505 1505 1504 1504 1504 1504 1504 1504 1503 1503 1503 1503 1502 1502 1501 1501 1500 1500 1499 1499 1498
1512 1512 1512 1511 1511 1511 1510 1510 1510 1510 1510 1510 1510 1509 1509 1509 1508 1507 1506 1506 1505 1504 1504 1503 1503 1503 1502 1502 1502 1502 1502 1501 1501 1500 1500 1499 1499 1498 1498 1497 1497 1496
1510 1510 1510 1510 1509 1509 1509 1508 1508 1508 1508 1508 1507 1507 1507 1506 1506 1505 1505 1505 1504 1503 1503 1502 1502 1501 1501 1501 1500 1500 1500 1499 1499 1498 1498 1497 1497 1496 1496 1495 1495 1495
1509 1508 1508 1508 1508 1508 1507 1507 1507 1506 1505 1505 1505 1504 1504 1504 1503 1503 1503 1502 1502 1501 1501 1500 1500 1499 1499 1499 1498 1498 1497 1497 1496 1496 1495 1495 1495 1494 1494 1493 1493 1493
1507 1506 1506 1506 1506 1505 1505 1505 1505 1504 1503 1503 1502 1502 1502 1501 1501 1500 1500 1499 1499 1499 1498 1497 1497 1497 1497 1497 1496 1496 1495 1494 1494 1494 1493 1493 1492 1492 1492 1491 1491 1491
1505 1504 1504 1504 1503 1503 1503 1503 1502 1502 1501 1500 1500 1500 1499 1498 1498 1497 1497 1497 1496 1496 1495 1495 1494 1494 1494 1494 1494 1493 1493 1492 1491 1491 1491 1490 1490 1490 1489 1489 1489 1488
1502 1502 1501 1501 1501 1501 1500 1500 1499 1499 1498 1498 1497 1497 1496 1496 1495 1495 1494 1494 1494 1493 1493 1492 1491 1491 1491 1491 1491 1490 1490 1490 1489 1488 1487 1487 1487 1487 1487 1486 1486 1486
1500 1500 1499 1499 1498 1498 1497 1497 1496 1495 1495 1495 1494 1494 1493 1493 1492 1492 1491 1491 1491 1490 1490 1489 1489 1488 1488 1488 1488 1487 1487 1486 1486 1485 1484 1484 1483 1484 1483 1483 1483 1483
1498 1498 1497 1496 1496 1495 1494 1494 1493 1492 1492 1491 1491 1490 1490 1489 1489 1488 1488 1488 1487 1487 1486 1486 1485 1485 1485 1485 1484 1484 1484 1483 1482 1481 1481 1480 1480 1480 1480 1480 1480 1479
1495 1495 1494 1493 1492 1492 1491 1490 1489 1489 1488 1488 1487 1486 1486 1485 1485 1485 1484 1484 1483 1483 1483 1482 1481 1481 1482 1481 1481 1481 1480 1480 1479 1478 1477 1476 1476 1476 1476 1476 1476 1476
1491 1490 1490 1489 1488 1488 1487 1486 1485 1485 1484 1483 1483 1482 1482 1482 1481 1481 1481 1480 1480 1479 1479 1478 1477 1477 1478 1478 1478 1478 1477 1476 1476 1475 1473 1473 1472 1472 1471 1471 1472 1472
1488 1486 1485 1484 1484 1483 1482 1482 1481 1480 1479 1479 1478 1477 1477 1477 1477 1477 1477 1476 1476 1475 1475 1474 1474 1474 1474 1474 1474 1474 1473 1473 1472 1471 1470 1469 1469 1468 1468 1468 1467 1468